Stations météo

Publicité
Aeroport de Brive-Souillac, France (7439): Température de l'air & dewpoint: 01.08.2020 11:00:00 - 07.08.2020 11:00:00 (CEST)Aeroport de Brive-Souillac, France (7439): Vitesse du vent & gusts: 01.08.2020 11:00:00 - 07.08.2020 11:00:00 (CEST)Aeroport de Brive-Souillac, France (7439): Direction du vent: 01.08.2020 11:00:00 - 07.08.2020 11:00:00 (CEST)Aeroport de Brive-Souillac, France (7439): reduced air pressure: 01.08.2020 11:00:00 - 07.08.2020 11:00:00 (CEST)Aeroport de Brive-Souillac, France (7439): visibility: 01.08.2020 11:00:00 - 07.08.2020 11:00:00 (CEST)Aeroport de Brive-Souillac, France (7439): Quantités de précipitations: 01.08.2020 11:00:00 - 07.08.2020 11:00:00 (CEST)
Date & Time tt [°C] td [°C] ff [km/h] ff [knt] fx [km/h] fx [knt] dd ppp [hPa] vv [km] rr [mm]
07.08.2020 11:00:00 30,9 9,2 11 6 23 12 ESE 1016,0 19 0,0
07.08.2020 10:00:00 28,1 9,4 16 8 27 15 ESE 1016,4 52 0,0
07.08.2020 09:00:00 25,3 10,3 13 7 18 10 ESE 1016,4 39 0,0
07.08.2020 08:00:00 21,3 11,0 8 4 10 5 ESE 1016,7 42 0,0
07.08.2020 07:00:00 18,9 9,9 3 2 11 6 SE 1016,7 60 0,0
07.08.2020 06:00:00 20,6 9,8 8 5 15 8 SE 1016,1 60 0,0
07.08.2020 05:00:00 20,5 10,3 10 5 15 8 SE 1015,9 60 0,0
07.08.2020 04:00:00 19,3 10,6 9 5 11 6 ESE 1015,9 60 0,0
07.08.2020 03:00:00 19,1 10,9 3 2 9 5 ESE 1016,0 60 0,0
07.08.2020 02:00:00 18,5 10,3 5 3 7 4 SSE 1016,0 60 0,0
07.08.2020 01:00:00 19,5 9,9 2 1 4 2 ESE 1016,0 60 0,0
07.08.2020 00:00:00 20,1 9,9 2 1 4 2 SW 1015,6 60 0,0
06.08.2020 23:00:00 21,7 10,5 0 0 3 1 N 1015,2 60 0,0
06.08.2020 22:00:00 24,6 10,5 0 0 6 3 N 1014,6 60 0,0
06.08.2020 21:00:00 31,7 9,3 6 3 17 9 NW 1013,5 60 0,0
06.08.2020 20:00:00 35,0 7,9 9 5 19 10 NNW 1012,9 47 0,0
06.08.2020 19:00:00 35,6 7,6 6 3 21 12 NNE 1012,8 20 0,0
06.08.2020 18:00:00 35,7 7,7 8 4 23 12 NE 1012,9 56 0,0
06.08.2020 17:00:00 35,5 7,5 7 4 23 13 N 1013,1 55 0,0
06.08.2020 16:00:00 35,1 8,0 9 5 27 14 NW 1013,4 55 0,0
06.08.2020 15:00:00 34,7 6,1 4 2 19 10 SSW 1013,9 60 0,0
06.08.2020 14:00:00 33,7 5,3 8 4 19 11 SSE 1014,4 18 0,0
06.08.2020 13:00:00 31,8 7,5 5 3 15 8 NE 1015,0 39 0,0
06.08.2020 12:00:00 29,7 8,1 4 2 19 10 SE 1015,5 43 0,0
06.08.2020 11:00:00 27,0 8,4 10 5 18 10 ESE 1016,0 57 0,0
06.08.2020 10:00:00 24,3 7,9 11 6 17 9 ESE 1016,2 20 0,0
06.08.2020 09:00:00 21,3 8,9 10 5 15 8 ESE 1016,3 59 0,0
06.08.2020 08:00:00 16,2 9,8 0 0 3 2 N 1016,5 58 0,0
06.08.2020 07:00:00 11,8 8,5 0 0 0 0 N 1016,6 48 0,0
06.08.2020 06:00:00 12,2 8,7 0 0 2 1 N 1016,4 59 0,0
06.08.2020 05:00:00 12,8 8,9 0 0 2 1 N 1016,1 60 0,0
06.08.2020 04:00:00 13,5 9,2 0 0 3 1 N 1016,1 59 0,0
06.08.2020 03:00:00 14,5 9,5 0 0 2 1 N 1015,9 60 0,0
06.08.2020 02:00:00 15,6 9,5 0 0 3 1 N 1015,7 60 0,0
06.08.2020 01:00:00 16,9 9,3 0 0 4 2 N 1015,6 60 0,0
06.08.2020 00:00:00 18,5 9,3 0 0 6 4 N 1015,2 60 0,0
05.08.2020 23:00:00 20,3 9,2 5 3 9 5 WNW 1014,8 60 0,0
05.08.2020 22:00:00 22,0 8,5 4 2 10 5 WNW 1014,2 60 0,0
05.08.2020 21:00:00 27,2 8,6 8 4 21 11 NW 1012,9 60 0,0
05.08.2020 20:00:00 30,2 6,1 14 8 23 13 NNW 1012,4 60 0,0
05.08.2020 19:00:00 30,9 6,0 13 7 28 15 NW 1012,3 53 0,0
05.08.2020 18:00:00 30,8 5,9 16 9 28 15 NW 1012,4 60 0,0
05.08.2020 17:00:00 30,8 5,9 14 8 36 20 WNW 1012,5 57 0,0
05.08.2020 16:00:00 30,8 6,6 11 6 26 14 NNW 1012,8 55 0,0
05.08.2020 15:00:00 29,3 6,0 10 5 32 18 NE 1013,3 10 0,0
05.08.2020 14:00:00 28,1 7,3 9 5 27 15 N 1013,9 60 0,0
05.08.2020 13:00:00 26,6 7,1 13 7 26 14 NNW 1014,6 19 0,0
05.08.2020 12:00:00 24,8 7,0 11 6 25 14 NE 1015,3 59 0,0
05.08.2020 11:00:00 23,1 8,4 9 5 17 9 ESE 1015,6 54 0,0
05.08.2020 10:00:00 20,7 8,0 3 2 11 6 NE 1016,1 51 0,0
05.08.2020 09:00:00 17,8 7,5 4 2 11 6 N 1016,6 48 0,0
05.08.2020 08:00:00 13,5 8,8 3 2 5 3 WNW 1017,0 58 0,0
05.08.2020 07:00:00 9,0 6,8 0 0 3 2 N 1017,4 59 0,0
05.08.2020 06:00:00 9,6 7,0 0 0 3 2 N 1017,5 60 0,0
05.08.2020 05:00:00 10,0 7,1 0 0 5 3 N 1017,4 60 0,0
05.08.2020 04:00:00 10,6 7,1 0 0 3 2 N 1017,5 60 0,0
05.08.2020 03:00:00 11,4 7,1 0 0 3 2 N 1017,6 60 0,0
05.08.2020 02:00:00 12,4 7,3 0 0 4 2 N 1017,9 60 0,0
05.08.2020 01:00:00 13,3 7,3 0 0 4 2 N 1017,7 60 0,0
05.08.2020 00:00:00 14,6 7,6 3 1 10 5 WNW 1017,7 60 0,0
04.08.2020 23:00:00 16,9 7,8 4 2 10 5 NNW 1017,3 60 0,0
04.08.2020 22:00:00 20,1 6,8 8 4 15 8 NNW 1016,8 60 0,0
04.08.2020 21:00:00 23,0 6,7 11 6 23 12 NNW 1016,1 60 0,0
04.08.2020 20:00:00 24,4 5,7 17 9 29 16 NNW 1016,0 60 0,0
04.08.2020 19:00:00 25,0 6,2 19 11 35 19 NNW 1015,7 44 0,0
04.08.2020 18:00:00 25,3 6,0 18 10 35 19 NNW 1016,1 55 0,0
04.08.2020 17:00:00 25,2 4,9 21 12 35 19 NNW 1016,4 41 0,0
04.08.2020 16:00:00 24,6 4,3 18 10 32 17 NW 1016,8 43 0,0
04.08.2020 15:00:00 23,9 5,3 15 8 34 19 NNW 1017,1 46 0,0
04.08.2020 14:00:00 23,0 6,7 13 7 36 19 N 1017,7 42 0,0
04.08.2020 13:00:00 22,4 7,4 16 8 35 19 NW 1017,7 42 0,0
04.08.2020 12:00:00 21,2 7,8 17 9 31 17 NW 1018,1 40 0,0
04.08.2020 11:00:00 20,0 7,4 9 5 16 9 NNW 1018,3 37 0,0
04.08.2020 10:00:00 18,6 10,2 3 2 12 6 ENE 1018,5 43 0,0
04.08.2020 09:00:00 15,9 11,7 5 3 11 6 N 1018,7 55 0,0
04.08.2020 08:00:00 14,4 11,5 0 0 8 4 N 1018,3 56 0,0
04.08.2020 07:00:00 11,3 10,5 6 3 8 5 WNW 1018,4 54 0,0
04.08.2020 06:00:00 11,5 10,7 5 3 11 6 NW 1018,1 60 0,0
04.08.2020 05:00:00 12,0 10,6 9 5 13 7 NW 1017,9 60 0,0
04.08.2020 04:00:00 13,0 11,2 9 5 13 7 WNW 1017,8 60 0,0
04.08.2020 03:00:00 13,9 11,4 7 4 17 9 WNW 1018,0 60 0,0
04.08.2020 02:00:00 15,4 12,0 10 6 17 9 W 1017,9 60 0,0
04.08.2020 01:00:00 17,0 12,1 13 7 31 17 NW 1017,8 60 0,0
04.08.2020 00:00:00 17,8 12,3 14 7 26 14 WNW 1017,3 60 0,0
03.08.2020 23:00:00 18,2 12,0 9 5 19 11 WNW 1016,8 60 0,0
03.08.2020 22:00:00 19,6 11,6 11 6 24 13 WNW 1016,2 60 0,0
03.08.2020 21:00:00 20,1 11,3 10 6 37 20 W 1015,5 60 0,0
03.08.2020 20:00:00 21,9 11,0 23 13 36 19 NW 1015,1 44 0,0
03.08.2020 19:00:00 21,6 11,0 22 12 37 20 WNW 1015,0 49 0,0
03.08.2020 18:00:00 22,0 10,8 23 13 41 22 WNW 1014,9 52 0,0
03.08.2020 17:00:00 23,6 10,6 16 9 41 22 W 1014,9 60 0,0
03.08.2020 16:00:00 22,5 10,3 22 12 40 21 WNW 1015,5 60 0,0
03.08.2020 15:00:00 22,6 9,0 18 10 37 20 WNW 1015,7 60 0,0
03.08.2020 14:00:00 21,8 10,3 13 7 36 20 WNW 1016,3 42 0,0
03.08.2020 13:00:00 22,2 10,0 14 8 33 18 WNW 1016,7 47 0,0
03.08.2020 12:00:00 20,0 10,4 12 6 27 15 WNW 1017,0 53 0,0
03.08.2020 11:00:00 18,7 12,0 10 6 21 11 WNW 1017,2 59 0,0
03.08.2020 10:00:00 17,0 12,1 8 4 17 9 W 1017,2 58 0,0
03.08.2020 09:00:00 15,5 11,7 9 5 18 10 WNW 1017,1 51 0,0
03.08.2020 08:00:00 14,6 11,4 10 5 15 8 WNW 1016,8 46 0,0
03.08.2020 07:00:00 13,1 10,8 3 2 16 9 W 1017,1 60 0,0
03.08.2020 06:00:00 14,2 11,0 10 6 17 9 WNW 1016,9 60 0,0
03.08.2020 05:00:00 14,8 10,6 9 5 16 8 WNW 1016,9 60 0,0
03.08.2020 04:00:00 15,5 10,7 7 4 17 9 WNW 1017,1 60 0,0
03.08.2020 03:00:00 16,3 10,8 12 6 18 10 WNW 1017,5 60 0,0
03.08.2020 02:00:00 17,1 10,9 10 5 26 14 WNW 1017,5 60 0,0
03.08.2020 01:00:00 18,1 10,9 16 9 25 13 NW 1017,7 60 0,0
03.08.2020 00:00:00 19,0 11,1 16 9 27 15 WNW 1017,8 60 0,0
02.08.2020 23:00:00 19,2 12,0 7 4 13 7 WNW 1017,3 60 0,0
02.08.2020 22:00:00 20,2 11,9 6 4 17 9 WNW 1016,9 60 0,0
02.08.2020 21:00:00 21,6 11,6 7 4 22 12 W 1016,4 60 0,0
02.08.2020 20:00:00 23,4 11,4 13 7 25 14 WNW 1016,0 51 0,0
02.08.2020 19:00:00 23,6 11,3 15 8 29 15 WNW 1016,0 53 0,0
02.08.2020 18:00:00 24,3 10,9 14 8 31 17 WNW 1016,5 60 0,0
02.08.2020 17:00:00 24,1 12,1 19 10 31 17 WNW 1017,0 56 0,0
02.08.2020 16:00:00 23,1 12,1 14 8 29 16 NW 1017,5 59 0,0
02.08.2020 15:00:00 22,3 13,1 15 8 29 15 NW 1018,3 40 0,0
02.08.2020 14:00:00 22,2 12,7 15 8 33 18 WNW 1018,7 51 0,0
02.08.2020 13:00:00 20,4 13,4 12 6 25 14 W 1019,0 48 0,0
02.08.2020 12:00:00 19,7 13,2 16 8 28 15 WNW 1019,3 56 0,0
02.08.2020 11:00:00 20,1 14,5 10 5 25 14 WNW 1018,9 50 0,0
02.08.2020 10:00:00 17,3 14,8 9 5 24 13 W 1019,3 39 0,0
02.08.2020 09:00:00 16,4 14,6 8 4 22 12 WNW 1019,3 32 0,0
02.08.2020 08:00:00 15,9 14,4 11 6 20 11 WNW 1019,3 35 0,0
02.08.2020 07:00:00 15,5 14,2 8 5 21 11 WNW 1019,3 31 0,0
02.08.2020 06:00:00 16,2 14,0 5 3 16 9 W 1019,2 42 0,0
02.08.2020 05:00:00 16,7 14,0 13 7 20 11 WNW 1019,2 48 0,0
02.08.2020 04:00:00 17,4 13,7 16 9 31 17 WNW 1019,1 52 0,0
02.08.2020 03:00:00 18,5 13,4 13 7 29 15 WNW 1019,0 60 0,0
02.08.2020 02:00:00 19,9 13,6 16 9 29 16 WNW 1019,2 60 0,0
02.08.2020 01:00:00 20,5 17,5 9 5 18 10 WNW 1019,0 60 0,0
02.08.2020 00:00:00 20,9 17,5 9 5 21 11 WNW 1018,9 60 0,0
01.08.2020 23:00:00 22,0 17,8 11 6 18 10 WNW 1019,0 60 0,0
01.08.2020 22:00:00 22,1 17,9 8 4 22 12 W 1019,0 60 0,0
01.08.2020 21:00:00 24,0 16,5 11 6 26 14 W 1017,8 60 0,0
01.08.2020 20:00:00 24,6 16,8 11 6 29 16 WNW 1017,3 60 0,0
01.08.2020 19:00:00 26,1 15,5 15 8 31 17 NW 1017,0 46 0,0
01.08.2020 18:00:00 25,6 17,8 13 7 29 16 WNW 1017,2 28 0,0
01.08.2020 17:00:00 25,1 18,5 17 9 26 14 NW 1017,3 20 0,0
01.08.2020 16:00:00 21,4 19,7 9 5 26 14 W 1017,8 22 2,5
01.08.2020 15:00:00 19,3 18,0 12 7 44 24 W 1019,0 17 0,6
01.08.2020 14:00:00 21,7 17,3 23 13 49 26 NW 1017,9 3,1 2,0
01.08.2020 13:00:00 26,8 17,3 13 7 29 16 W 1017,3 27 0,0
01.08.2020 12:00:00 26,4 17,5 8 4 22 12 WSW 1016,8 23 0,0
01.08.2020 11:00:00 24,4 17,1 11 6 22 12 WNW 1017,2 39 0,0

tt = Température de l'air
td = dewpoint
ff = Vitesse du vent
fx = gusts
dd = Direction du vent
ppp = reduced air pressure
vv = visibility
rr = Quantités de précipitations

stations d'obs. à proximité